Temperature
12 13 13 13 11 10 10 11 13 15 16 18 19 20 19 20 20 20 21 21 20 20 19 18 18 18 18 18 18 17 17 17 17 17 17 17 17 17 17 17 17 17 17 16 16 16 16 16 16
12 12 13 12 9 9 10 11 13 14 16 18 19 19 19 20 20 20 20 20 20 20 19 18 18 18 18 18 17 17 17 16 16 16 16 16 16 17 17 17 17 17 17 16 16 16 16 16 16
12 12 12 9 9 9 11 12 13 15 17 17 18 19 19 20 20 20 20 20 20 19 19 18 18 17 17 17 17 17 16 16 16 16 16 16 16 16 16 16 16 16 16 16 16 16 16 16 16
11 11 11 8 9 9 11 12 13 14 16 17 17 18 19 19 19 19 20 19 19 19 19 18 18 17 17 17 17 16 16 16 16 16 16 16 16 16 16 16 16 16 17 17 16 16 16 16 16
11 11 8 8 9 10 11 12 13 13 14 16 16 16 18 18 18 19 19 19 19 19 18 18 18 17 17 17 17 16 16 16 16 16 16 16 16 16 16 16 16 16 16 16 16 16 16 16 15
10 8 7 7 8 10 11 14 14 13 14 15 16 16 17 17 18 18 18 18 18 19 18 18 17 17 17 17 16 16 16 16 16 16 16 16 16 16 16 16 16 16 16 16 16 16 16 16 15
9 7 7 8 9 10 12 13 13 12 12 14 15 15 16 17 17 17 17 17 17 18 18 18 17 17 17 16 16 16 16 16 16 16 16 16 16 16 16 16 16 16 16 16 16 16 16 16 15
9 7 7 8 8 9 11 12 12 12 12 14 14 14 14 15 15 16 16 16 16 16 17 17 17 17 16 16 16 16 16 16 16 16 16 15 16 16 16 16 16 16 16 16 16 16 16 16 15
9 6 6 7 9 10 10 10 11 12 12 12 13 13 13 14 15 15 15 16 16 15 16 16 16 16 16 16 16 16 16 15 15 15 15 15 15 15 15 16 16 16 16 16 16 16 16 16 15
8 5 6 8 9 9 9 10 10 11 10 11 12 13 13 14 14 14 14 15 15 15 15 15 15 16 16 16 16 15 15 15 15 15 15 15 15 15 15 16 16 16 16 16 16 16 16 16 15
7 6 7 9 9 9 9 9 10 10 9 10 11 12 13 13 13 13 14 14 14 15 15 15 15 15 15 15 15 15 15 15 15 15 15 15 15 15 15 15 15 16 16 16 16 16 16 16 15
7 7 8 9 9 9 9 9 9 9 10 11 11 11 12 12 12 13 13 13 14 14 14 14 15 15 15 15 15 15 15 15 14 14 15 15 15 15 15 15 15 16 16 16 16 16 16 15 15
7 7 8 8 8 8 8 9 9 9 10 11 11 11 11 12 12 12 13 13 13 14 14 14 14 14 14 14 14 14 15 15 15 14 14 15 15 15 15 15 15 16 16 16 16 16 16 15 15
7 7 7 8 8 8 8 8 8 9 10 10 10 11 11 11 11 12 12 12 13 13 14 14 14 14 14 14 14 14 14 14 14 15 14 15 15 15 15 15 15 16 16 16 16 16 15 15 15
7 6 6 7 7 8 8 7 7 9 10 10 10 10 10 11 11 12 12 12 12 13 13 13 13 13 14 14 14 14 14 14 14 14 14 14 15 15 15 15 15 15 15 15 15 15 15 15 15
6 5 5 6 7 8 7 6 8 10 9 9 9 10 10 10 11 11 12 12 12 13 13 13 13 13 13 13 13 13 14 14 14 14 14 14 14 15 15 15 15 15 15 15 15 15 15 15 15
4 4 4 6 7 8 7 6 8 9 9 9 9 9 9 10 10 11 11 12 12 12 13 13 13 13 13 13 13 13 13 13 14 14 14 14 14 14 15 15 15 15 15 15 15 15 15 15 15
4 4 4 5 7 7 6 7 8 9 9 8 9 9 9 9 10 11 11 11 12 12 12 12 12 12 13 13 12 13 13 13 13 14 14 14 14 14 14 14 15 15 15 15 15 15 15 14 14
5 5 4 6 7 7 6 7 8 8 8 8 8 8 9 9 10 11 11 11 12 12 12 12 12 12 12 12 12 12 12 13 13 13 13 13 13 14 14 14 14 14 15 15 15 15 14 14 14
5 5 5 6 7 7 7 7 8 8 8 8 8 8 8 9 10 10 10 11 11 11 12 12 12 12 12 12 12 13 13 13 13 13 13 13 13 13 14 14 14 14 15 15 15 14 14 14 14
5 5 5 6 7 7 7 6 7 8 8 8 8 8 9 9 9 10 10 11 11 11 11 11 12 12 12 12 12 12 12 12 12 12 13 13 13 13 14 14 14 14 14 14 14 14 14 14 14
6 7 7 7 6 6 6 6 6 7 8 8 8 8 8 9 9 10 10 10 10 11 11 11 11 12 12 12 12 12 12 12 12 12 12 12 12 13 13 13 14 14 14 14 14 14 14 14 14
6 7 7 7 6 6 6 6 6 7 7 7 7 7 8 8 9 9 9 10 10 10 11 11 11 11 11 12 12 12 12 12 12 12 12 12 12 12 13 13 13 13 13 14 14 14 14 14 14
7 7 6 6 6 6 6 6 6 6 6 7 7 7 7 8 8 8 9 9 10 10 10 11 11 11 11 11 11 11 11 12 12 12 12 12 12 12 12 12 13 13 13 13 13 13 13 13 13
7 6 5 6 5 6 7 7 6 6 7 7 7 7 7 7 7 8 8 9 9 9 10 10 10 10 11 11 11 11 11 12 12 12 12 12 12 12 12 12 12 12 13 13 13 13 13 13 13
7 6 6 6 6 6 7 6 6 6 7 7 6 6 7 7 7 7 7 8 8 9 9 10 10 10 10 10 11 11 11 11 11 11 11 12 12 12 12 12 12 12 12 12 12 12 12 12 12
7 6 6 6 6 6 6 6 7 7 7 7 6 6 6 6 6 7 7 7 8 8 9 9 9 10 10 10 10 10 11 11 11 11 11 11 11 11 11 12 12 12 12 12 12 12 12 12 12
7 7 6 6 7 7 7 6 6 6 6 6 6 6 5 5 6 6 6 7 7 8 8 8 9 9 9 10 10 10 10 10 10 11 11 11 11 11 11 11 11 11 11 11 11 11 11 11 11
7 7 7 6 7 7 7 6 6 6 6 6 5 5 5 5 5 5 6 6 7 7 8 8 8 9 9 9 9 9 10 10 10 10 10 10 10 11 11 11 11 11 11 11 11 11 11 11 11
7 7 7 7 7 6 6 6 6 6 6 6 5 5 5 5 5 5 6 6 7 7 7 8 8 8 8 9 9 9 9 9 10 10 10 10 10 10 10 10 10 10 10 10 10 10 10 10 10
Wind_Speed
10 10 2 4 4 1 6 7 5 4 5 5 4 5 5 6 5 5 1 8 12 16 19 22 22 21 21 21 21 21 21 21 21 21 21 21 21 21 21 20 20 19 19 19 19 19 19 19 18
7 4 5 5 4 5 6 7 10 11 8 6 7 5 5 5 2 2 3 7 15 17 18 20 21 21 21 21 21 21 21 21 21 21 21 21 21 21 21 20 20 20 19 19 19 19 18 17 17
6 2 4 4 5 8 7 6 10 9 9 7 6 6 4 3 2 4 4 11 15 15 17 20 22 21 20 20 20 21 21 21 21 21 21 21 21 21 21 20 20 20 20 19 18 17 16 16 14
3 4 4 2 9 7 6 6 4 7 8 5 3 7 4 3 1 2 7 13 14 13 14 19 23 22 20 20 20 21 21 21 21 22 22 22 22 22 21 20 20 20 20 19 18 16 15 14 13
4 4 2 5 8 6 6 8 8 8 7 6 6 6 6 6 3 3 8 12 13 13 13 19 23 22 21 20 20 21 21 21 22 22 22 22 22 22 21 21 21 21 20 18 17 16 14 13 11
4 3 3 7 8 5 6 7 8 9 8 7 4 5 5 5 5 2 4 7 10 13 12 17 21 21 20 20 20 21 21 21 22 22 22 23 23 23 22 22 22 21 19 18 17 15 14 12 10
4 3 5 5 4 5 5 4 4 6 8 7 4 4 4 6 6 3 2 3 5 8 10 11 16 18 19 18 19 20 21 21 22 22 23 23 23 23 23 23 22 21 19 18 16 15 13 11 9
4 3 4 4 5 5 3 4 3 4 6 6 3 2 4 7 7 5 4 2 3 5 7 9 11 14 15 16 17 18 19 21 21 22 22 22 23 23 24 23 22 20 19 18 16 15 13 10 8
3 2 5 5 4 4 4 6 6 5 5 5 3 2 4 8 8 6 4 3 0 4 5 7 8 9 12 14 16 16 18 19 20 20 22 21 19 20 21 21 21 20 19 17 16 14 12 10 7
4 5 7 4 3 4 6 7 7 7 8 7 7 6 5 6 7 6 5 3 3 4 5 5 7 9 9 12 13 13 14 15 16 16 19 18 17 17 18 20 21 20 19 17 16 14 11 9 6
5 7 5 6 6 6 8 9 7 7 11 9 9 11 9 7 6 6 5 5 6 4 5 6 6 7 8 6 8 8 10 11 14 16 18 17 15 15 15 15 16 17 17 14 13 12 10 8 6
4 6 7 6 7 7 8 8 9 11 14 11 11 11 10 10 8 8 7 7 6 5 6 7 6 7 7 6 6 6 7 8 9 14 18 16 10 9 11 10 12 13 12 11 10 9 8 7 7
6 6 7 9 10 10 11 12 11 15 15 12 12 12 12 12 10 10 8 7 7 6 6 7 7 8 8 7 7 7 7 9 12 14 17 17 10 10 9 9 11 11 12 10 8 7 7 6 6
4 6 8 9 11 9 12 15 11 16 12 11 12 13 13 13 12 11 9 8 7 7 7 6 8 8 9 8 8 8 8 10 12 13 16 18 14 11 10 9 8 10 12 12 10 8 6 5 5
4 6 10 9 9 6 7 13 13 16 12 14 15 15 14 14 12 12 11 10 9 8 8 8 9 8 8 9 8 8 8 10 10 12 17 19 17 15 12 10 9 10 13 12 9 7 5 4 4
3 3 6 6 4 5 4 14 12 9 9 13 14 14 14 14 13 12 12 11 10 9 8 9 9 9 9 9 9 6 7 9 9 12 16 18 20 19 13 10 10 12 12 9 6 5 5 4 4
2 4 6 8 5 4 5 13 12 9 10 14 14 13 13 13 13 12 11 11 10 10 10 10 10 10 10 9 8 7 6 8 9 11 12 16 19 21 14 10 9 13 8 6 8 5 5 5 4
4 5 6 8 6 6 11 17 18 11 11 13 12 12 12 13 14 11 9 9 9 9 9 10 10 10 9 7 6 6 6 7 7 9 11 16 17 19 15 10 10 11 8 8 7 6 5 4 5
5 7 12 13 10 9 13 18 19 14 10 11 11 10 11 13 12 9 8 9 8 8 9 10 11 11 9 6 7 8 8 7 7 8 12 15 16 17 14 11 11 11 10 10 10 6 6 4 4
10 11 12 12 7 7 11 16 15 12 10 9 10 10 11 11 9 8 7 7 8 9 9 10 11 11 10 8 7 6 7 6 7 8 10 13 15 16 14 13 12 11 9 10 9 7 5 4 4
10 10 8 9 10 7 7 9 8 7 5 6 7 7 7 8 8 7 6 6 7 8 9 10 10 10 10 10 7 6 5 4 6 8 9 10 12 14 13 13 12 11 10 10 10 9 8 6 4
7 7 8 9 6 5 3 5 7 8 8 7 7 7 6 6 5 4 4 5 6 7 8 8 8 9 10 10 9 11 10 8 8 9 8 9 11 11 12 12 11 11 9 10 9 8 6 7 6
7 6 7 7 5 5 3 3 7 8 8 10 9 8 7 6 4 2 2 3 3 4 5 7 7 7 8 9 11 12 10 8 7 8 10 10 9 10 10 10 10 11 9 9 10 8 8 6 6
5 4 5 3 1 3 3 2 5 7 10 11 11 10 8 7 5 4 3 2 1 1 2 5 6 6 6 7 9 10 11 11 11 11 11 10 8 8 9 9 9 9 9 9 10 9 10 8 7
0 1 2 3 1 3 2 0 3 8 10 9 10 9 8 8 7 6 6 5 4 3 2 3 5 4 4 6 7 8 9 10 11 10 10 9 7 6 9 8 9 9 8 9 8 8 9 9 9
1 1 1 1 2 3 3 2 4 8 9 9 9 9 9 9 8 8 8 7 6 6 5 4 3 2 2 4 5 7 8 7 7 8 7 8 7 7 8 8 8 8 8 8 8 7 7 7 8
1 1 2 1 1 1 3 4 4 9 11 11 12 12 12 11 11 10 9 10 10 9 8 7 6 5 4 3 5 5 6 6 6 6 6 6 5 5 7 7 7 7 7 7 8 7 8 8 8
2 2 0 0 0 1 3 4 6 10 11 11 12 12 11 11 12 13 12 13 13 12 12 11 10 9 7 6 6 5 5 5 5 6 6 5 5 6 6 6 6 6 6 6 6 6 6 7 7
2 2 1 1 0 1 1 3 5 6 7 9 10 11 11 12 12 12 12 12 13 13 13 13 13 13 11 9 8 7 5 5 6 5 5 5 5 5 6 6 6 6 6 6 6 6 7 7 6
1 2 2 0 2 2 2 2 5 5 6 7 9 10 10 11 11 12 13 13 14 14 14 14 13 13 12 10 9 8 7 7 6 4 4 3 4 4 4 4 4 4 4 5 6 6 6 7 8
Wind_Direction
344 337 36 60 69 147 232 233 240 259 248 222 245 248 234 228 220 236 208 149 143 154 163 167 167 165 163 161 160 159 156 155 153 151 148 146 143 141 139 137 135 132 128 125 122 119 117 115 113
347 350 56 73 129 205 245 228 233 250 254 308 307 278 270 258 234 152 148 161 150 155 161 166 168 166 166 164 163 163 162 161 159 157 155 152 149 147 144 142 138 134 130 125 123 121 120 118 116
341 23 89 114 179 200 221 228 224 252 280 298 293 282 256 243 196 186 198 154 149 155 161 166 167 168 168 167 167 167 167 167 165 163 161 158 154 151 149 145 139 134 130 128 126 125 125 122 118
39 47 66 155 227 222 221 267 301 312 311 300 310 300 292 307 269 209 147 146 148 155 161 165 167 169 170 170 170 171 171 171 171 168 166 162 158 155 152 146 140 135 132 131 130 129 128 126 120
65 85 128 236 241 245 259 284 302 299 292 301 326 297 293 312 348 109 140 150 155 159 162 167 169 171 172 172 172 173 174 175 175 172 169 165 161 158 152 145 141 138 136 136 135 134 133 130 122
66 91 170 235 245 258 260 268 284 284 282 296 303 288 278 335 18 78 134 153 162 163 164 168 171 172 173 174 174 175 176 176 176 173 171 167 163 158 153 148 145 142 142 141 140 139 138 135 127
118 134 208 232 251 257 260 280 269 278 291 291 287 280 293 340 347 353 75 132 154 164 165 166 170 170 171 173 176 177 178 177 176 174 171 168 163 159 155 151 148 147 147 146 145 144 144 142 133
137 141 228 235 236 250 291 323 312 316 287 293 313 284 297 324 339 7 36 75 130 165 170 171 170 171 170 171 173 175 177 177 177 173 169 165 162 159 155 153 151 150 150 150 149 148 149 148 141
107 152 224 224 223 253 331 330 313 299 283 297 285 256 292 324 348 5 5 14 87 176 182 178 173 172 170 170 174 174 174 175 175 171 165 161 161 157 155 154 153 152 153 154 154 153 155 153 151
133 202 227 232 244 286 306 302 301 312 303 294 292 286 307 332 346 341 327 298 250 204 198 189 181 174 172 177 171 172 175 174 171 168 164 161 157 156 156 156 155 155 155 157 158 157 158 159 164
181 214 238 257 266 279 288 288 280 276 275 266 277 292 304 310 311 304 292 275 259 227 210 197 191 178 173 177 170 170 169 168 167 164 163 159 155 155 154 156 157 156 157 159 161 159 165 172 182
227 241 246 265 277 276 271 274 274 255 256 262 263 269 277 282 278 272 267 264 260 245 220 200 191 186 177 172 174 174 169 168 169 169 164 162 159 158 160 162 162 161 163 163 165 168 176 188 199
245 269 273 276 279 270 271 263 264 263 263 266 269 271 270 270 266 264 256 249 249 239 224 203 191 191 180 176 181 182 180 175 173 172 172 168 166 166 165 166 166 167 167 170 173 177 182 192 206
263 282 288 282 279 271 265 268 260 261 262 266 267 268 266 263 258 257 253 246 242 239 223 203 192 195 186 180 186 185 183 181 176 176 178 173 172 169 170 170 171 174 176 179 181 184 183 192 201
302 305 301 274 260 256 261 272 246 257 263 263 263 264 263 261 257 249 242 236 230 226 217 204 194 189 189 185 189 190 187 183 183 180 181 178 175 173 173 174 176 180 181 181 180 184 183 188 196
315 299 289 279 250 245 224 267 266 264 263 263 263 263 263 261 256 249 238 230 224 214 210 209 200 189 188 188 188 188 189 187 187 184 183 182 179 176 174 176 179 180 179 178 176 177 178 188 187
288 271 270 290 261 247 233 269 279 271 266 268 264 260 261 262 258 252 239 225 219 211 205 204 196 188 188 189 188 190 189 192 187 185 183 184 182 178 175 178 179 177 177 179 184 178 173 177 179
237 254 273 275 281 279 273 273 283 281 266 266 263 259 258 257 257 253 240 224 213 208 201 198 193 187 184 186 188 193 194 192 187 188 186 182 183 179 175 176 176 175 176 180 180 172 172 170 169
249 265 276 277 277 282 273 278 285 286 273 268 263 262 262 259 257 253 239 225 209 204 199 195 191 187 184 187 190 195 197 193 191 193 188 183 181 179 175 177 177 178 182 184 176 164 167 168 151
252 268 277 287 287 284 279 283 284 283 273 266 265 265 263 263 265 259 242 226 208 204 201 199 197 189 187 193 190 189 181 186 191 193 190 183 180 180 178 177 180 180 179 177 175 161 159 166 163
253 251 264 279 305 286 291 297 299 314 297 291 289 279 274 262 265 254 229 219 206 205 201 204 199 193 189 189 184 177 169 168 186 188 188 184 181 182 180 179 179 180 179 182 182 175 167 173 181
264 246 255 278 305 299 309 305 316 332 331 333 326 323 310 295 281 258 227 218 210 210 204 200 195 194 192 189 185 186 189 189 190 183 181 184 184 183 182 179 179 181 182 183 185 182 175 168 179
243 260 269 275 270 285 282 256 311 341 341 343 338 332 333 332 322 296 257 233 213 202 199 195 191 190 192 192 192 193 192 186 176 173 173 181 186 185 182 181 179 181 184 185 184 182 181 179 180
258 289 283 262 248 295 286 236 325 344 333 335 340 341 348 351 358 6 18 39 85 124 170 167 169 178 183 186 186 186 179 173 171 173 178 179 181 184 183 180 181 184 186 188 190 190 189 190 187
322 359 5 6 349 284 326 45 324 331 340 345 347 353 4 13 11 15 22 29 42 55 69 116 130 143 166 176 179 177 171 166 171 174 177 174 178 183 187 184 186 186 190 191 189 192 195 193 192
274 169 152 245 285 308 352 3 323 335 354 8 12 20 24 30 28 29 31 32 41 41 46 68 90 102 118 155 168 169 159 160 165 168 171 174 178 181 182 182 187 189 188 189 189 194 198 196 198
313 276 207 184 279 341 345 336 339 360 10 16 23 31 32 32 36 38 38 37 41 41 43 50 60 71 81 113 125 134 141 145 151 158 161 169 170 173 177 180 181 183 185 188 186 196 199 194 197
209 251 50 146 343 27 347 357 348 349 6 15 21 28 31 35 38 39 41 41 42 43 45 47 49 55 62 76 96 97 106 120 131 137 147 155 156 158 168 179 181 181 185 188 192 200 202 198 199
324 328 293 246 194 126 31 352 349 360 14 23 26 30 34 35 36 37 38 40 43 43 43 42 43 47 50 57 67 78 88 101 106 114 133 149 152 154 165 176 180 185 190 189 194 201 199 203 205
253 297 294 58 9 66 113 3 0 26 32 39 37 36 38 39 38 38 38 39 38 38 37 36 36 40 41 47 56 61 65 75 83 88 94 106 135 153 160 164 171 180 190 193 198 206 208 208 211
Height
1501 1502 1504 1507 1511 1518 1516 1508 1500 1497 1494 1491 1491 1491 1489 1489 1490 1491 1484 1481 1482 1484 1487 1490 1493 1496 1499 1502 1504 1506 1509 1512 1514 1517 1519 1521 1524 1525 1527 1529 1530 1532 1534 1535 1537 1538 1539 1540 1541
1500 1502 1505 1506 1514 1519 1514 1503 1498 1493 1491 1490 1490 1489 1487 1485 1484 1483 1481 1481 1482 1484 1487 1489 1493 1496 1499 1501 1503 1506 1509 1511 1514 1517 1519 1521 1524 1526 1528 1529 1531 1533 1535 1537 1538 1540 1541 1542 1543
1499 1501 1504 1507 1512 1512 1506 1495 1492 1490 1491 1491 1489 1487 1485 1483 1482 1481 1481 1482 1483 1484 1487 1489 1493 1496 1498 1501 1503 1505 1508 1511 1514 1516 1519 1521 1524 1526 1528 1530 1532 1534 1536 1538 1539 1541 1543 1544 1545
1499 1502 1504 1509 1506 1501 1496 1491 1491 1491 1490 1489 1488 1486 1484 1484 1482 1482 1481 1482 1483 1484 1486 1488 1492 1495 1498 1500 1503 1505 1507 1510 1513 1516 1518 1521 1523 1526 1528 1530 1532 1534 1536 1538 1540 1542 1544 1545 1546
1499 1501 1506 1507 1502 1496 1492 1490 1490 1490 1490 1488 1488 1485 1482 1483 1481 1481 1481 1482 1482 1483 1486 1488 1491 1493 1497 1499 1502 1504 1507 1509 1512 1515 1518 1521 1523 1525 1528 1530 1532 1535 1537 1539 1541 1543 1545 1546 1547
1499 1501 1508 1506 1499 1493 1491 1490 1490 1489 1487 1486 1486 1484 1481 1481 1480 1480 1481 1481 1482 1483 1485 1487 1490 1492 1495 1498 1501 1503 1506 1509 1511 1514 1517 1520 1522 1525 1528 1530 1533 1535 1537 1540 1542 1544 1546 1547 1548
1499 1502 1504 1501 1497 1493 1490 1488 1488 1487 1486 1485 1485 1483 1480 1480 1480 1480 1481 1481 1482 1483 1484 1486 1488 1491 1494 1497 1499 1502 1505 1508 1511 1513 1516 1519 1522 1524 1527 1530 1532 1535 1537 1540 1542 1544 1546 1548 1549
1497 1501 1500 1498 1495 1492 1488 1487 1487 1486 1484 1483 1483 1481 1479 1479 1479 1479 1479 1480 1481 1482 1484 1485 1486 1489 1492 1495 1498 1500 1503 1506 1509 1512 1515 1518 1521 1524 1527 1529 1532 1535 1537 1540 1542 1544 1546 1548 1550
1496 1502 1500 1495 1492 1489 1487 1486 1485 1484 1482 1481 1480 1480 1479 1478 1477 1477 1478 1478 1479 1481 1482 1484 1485 1487 1490 1492 1495 1498 1501 1504 1508 1511 1514 1517 1520 1523 1526 1529 1531 1534 1537 1540 1542 1544 1546 1548 1550
1495 1500 1495 1490 1489 1488 1486 1485 1484 1482 1479 1477 1476 1476 1476 1475 1475 1475 1476 1476 1477 1478 1480 1481 1483 1485 1487 1490 1492 1496 1499 1502 1505 1509 1512 1515 1518 1521 1525 1528 1531 1534 1537 1539 1542 1544 1546 1548 1550
1492 1493 1490 1488 1487 1486 1485 1483 1482 1480 1476 1474 1473 1471 1471 1472 1472 1472 1473 1473 1474 1475 1476 1478 1480 1482 1484 1487 1490 1492 1496 1499 1502 1506 1509 1513 1516 1520 1523 1526 1529 1532 1535 1538 1541 1543 1545 1547 1549
1490 1488 1487 1485 1485 1484 1482 1480 1478 1475 1471 1471 1470 1469 1467 1467 1467 1468 1468 1470 1470 1471 1473 1475 1477 1480 1482 1484 1486 1489 1492 1496 1499 1502 1506 1510 1513 1517 1520 1524 1527 1530 1534 1537 1539 1542 1544 1546 1548
1488 1486 1484 1483 1482 1480 1479 1476 1474 1468 1466 1466 1465 1464 1463 1462 1462 1463 1464 1464 1466 1467 1469 1471 1473 1476 1478 1481 1484 1486 1489 1492 1496 1499 1503 1507 1510 1514 1518 1521 1525 1528 1532 1535 1538 1541 1543 1545 1547
1486 1485 1482 1480 1478 1476 1475 1470 1470 1461 1461 1461 1460 1458 1457 1457 1456 1457 1458 1459 1461 1462 1465 1467 1469 1472 1474 1477 1480 1483 1486 1489 1492 1496 1499 1503 1507 1511 1515 1519 1522 1526 1530 1533 1536 1539 1541 1544 1545
1485 1485 1481 1476 1474 1472 1471 1466 1461 1456 1458 1456 1454 1453 1451 1451 1450 1451 1452 1454 1455 1457 1459 1462 1464 1467 1470 1472 1476 1479 1482 1485 1488 1491 1496 1500 1504 1508 1512 1516 1520 1524 1528 1531 1534 1537 1540 1542 1543
1485 1486 1485 1475 1471 1468 1472 1464 1454 1454 1453 1450 1448 1447 1445 1444 1443 1444 1446 1448 1450 1452 1454 1456 1459 1462 1465 1468 1472 1475 1478 1481 1484 1487 1491 1496 1500 1504 1509 1513 1517 1521 1525 1528 1531 1534 1537 1539 1541
1488 1489 1484 1476 1468 1467 1467 1460 1450 1450 1448 1445 1442 1440 1438 1437 1437 1437 1439 1441 1443 1445 1448 1451 1453 1456 1460 1463 1466 1470 1473 1476 1480 1483 1487 1491 1496 1500 1505 1509 1514 1518 1522 1525 1529 1532 1534 1536 1538
1488 1487 1482 1477 1468 1466 1464 1456 1447 1444 1443 1439 1436 1434 1433 1431 1430 1431 1433 1435 1437 1439 1442 1445 1448 1451 1455 1458 1461 1465 1468 1471 1475 1479 1483 1487 1492 1496 1500 1505 1510 1514 1518 1522 1525 1528 1531 1534 1536
1483 1483 1480 1472 1465 1464 1458 1451 1442 1438 1437 1434 1431 1430 1428 1426 1425 1426 1427 1429 1431 1433 1436 1439 1442 1446 1449 1453 1456 1459 1462 1466 1470 1474 1478 1483 1487 1492 1496 1501 1506 1510 1514 1518 1521 1524 1528 1530 1533
1480 1479 1475 1467 1461 1459 1454 1446 1438 1434 1432 1429 1427 1425 1423 1421 1420 1420 1421 1423 1425 1427 1430 1434 1437 1440 1443 1448 1451 1454 1457 1461 1465 1469 1473 1478 1482 1487 1491 1496 1501 1505 1510 1514 1517 1520 1523 1526 1529
1475 1475 1472 1467 1461 1455 1454 1446 1437 1431 1428 1425 1423 1421 1419 1418 1416 1415 1416 1418 1420 1422 1425 1429 1431 1434 1438 1442 1446 1449 1453 1457 1461 1464 1469 1473 1478 1483 1488 1492 1497 1501 1505 1509 1512 1516 1519 1521 1524
1471 1465 1464 1463 1464 1461 1457 1453 1440 1434 1428 1425 1422 1420 1417 1415 1413 1412 1412 1413 1415 1417 1420 1423 1426 1429 1433 1437 1439 1442 1446 1450 1454 1459 1464 1469 1474 1479 1484 1488 1493 1497 1501 1505 1508 1511 1515 1517 1519
1466 1462 1462 1461 1461 1460 1455 1456 1445 1436 1431 1427 1423 1420 1416 1413 1412 1411 1410 1410 1411 1413 1415 1418 1422 1424 1428 1431 1434 1438 1442 1446 1450 1455 1461 1465 1470 1475 1480 1484 1489 1493 1497 1501 1504 1507 1510 1512 1514
1462 1461 1459 1459 1460 1460 1453 1455 1448 1442 1437 1429 1424 1420 1417 1414 1412 1411 1410 1410 1410 1411 1412 1415 1418 1421 1425 1428 1430 1433 1437 1441 1445 1451 1456 1462 1466 1471 1476 1480 1485 1489 1493 1496 1500 1502 1505 1507 1509
1462 1465 1467 1464 1464 1458 1451 1451 1450 1444 1438 1432 1427 1422 1418 1416 1413 1412 1411 1410 1410 1410 1411 1413 1416 1419 1422 1425 1427 1430 1433 1437 1442 1448 1453 1457 1462 1466 1471 1476 1480 1484 1488 1492 1495 1497 1499 1502 1504
1461 1463 1468 1467 1461 1456 1451 1451 1451 1445 1439 1434 1430 1425 1421 1418 1417 1415 1413 1412 1411 1412 1412 1414 1416 1418 1420 1422 1425 1428 1431 1436 1440 1445 1450 1455 1459 1463 1468 1472 1476 1480 1484 1487 1489 1492 1494 1496 1498
1460 1461 1461 1463 1460 1460 1456 1454 1449 1445 1441 1437 1433 1429 1426 1423 1421 1419 1417 1415 1414 1414 1414 1416 1416 1417 1419 1421 1424 1427 1431 1435 1439 1443 1448 1452 1456 1460 1465 1468 1472 1475 1479 1482 1484 1486 1488 1490 1492
1459 1458 1461 1461 1457 1456 1457 1456 1455 1449 1445 1441 1438 1435 1432 1429 1426 1423 1421 1419 1418 1417 1417 1418 1418 1418 1419 1421 1424 1427 1431 1435 1439 1442 1446 1450 1453 1457 1461 1465 1468 1470 1473 1476 1478 1480 1483 1484 1485
1459 1459 1458 1458 1457 1458 1459 1462 1457 1454 1450 1447 1444 1441 1438 1434 1431 1429 1427 1425 1424 1423 1422 1421 1421 1420 1422 1424 1427 1430 1433 1436 1439 1441 1445 1448 1451 1454 1458 1461 1463 1466 1468 1471 1473 1475 1476 1478 1479
1458 1457 1457 1458 1458 1461 1464 1467 1459 1456 1454 1451 1449 1446 1443 1440 1437 1435 1433 1431 1430 1429 1428 1427 1426 1426 1426 1428 1430 1432 1434 1436 1439 1441 1443 1445 1448 1451 1454 1457 1459 1461 1463 1465 1467 1468 1470 1471 1472